Regional Weather Roundup
Issued by NWS Wilmington, NC

Home | Current Version | Previous Version | Text Only | Print | Product List | Glossary On
Versions: 1 2 3 4 5 6 7 8 9 10 11 12 13 14 15 16 17 18 19 20 21 22 23 24 25 26 27 28 29 30 31 32 33 34 35 36 37 38 39 40 41 42 43 44 45 46 47 48 49 50
000
ASUS42 KILM 010010
RWRILM
RWRILM
REGIONAL HOURLY WEATHER ROUNDUP
NATIONAL WEATHER SERVICE WILMINGTON NC
800 PM EDT TUE SEP 30 2014

NOTE: "FAIR" INDICATES FEW OR NO CLOUDS BELOW 12,000 FEET WITH NO
SIGNIFICANT WEATHER AND/OR OBSTRUCTIONS TO VISIBILITY.

...............WFO WILMINGTON COUNTY WARNING AREA...............

......COASTAL NC AND SC COUNTIES......

CITY           SKY/WX    TMP DP  RH WIND       PRES   REMARKS
WILMINGTON     CLEAR     70  66  87 CALM      29.86R
SOUTHPORT      CLEAR     70  65  84 CALM      29.86R
N MYRTLE BEACH MOCLDY    71  66  84 CALM      29.86R
MYRTLE BEACH   PTCLDY    73  64  73 N8        29.86R

......INLAND NC AND SC COUNTIES.......

CITY           SKY/WX    TMP DP  RH WIND       PRES   REMARKS
LUMBERTON      CLEAR     67  64  90 CALM      29.87R
ELIZABETHTOWN  CLEAR     70  65  85 CALM      29.87R
WHITEVILLE     CLEAR     69  65  86 CALM      29.87R
FLORENCE       CLEAR     71  66  84 CALM      29.87R
DARLINGTON     CLEAR     68  63  83 CALM      29.89R

....................REST OF NORTH CAROLINA......................

.........EASTERN NC.........

CITY           SKY/WX    TMP DP  RH WIND       PRES   REMARKS
CAPE HATTERAS  CLEAR     69  65  86 VRB7      29.85R
JACKSONVILLE   CLEAR     66  63  88 CALM      29.87R
MOREHEAD CITY  CLEAR     70  64  81 NE5       29.86R
KENANSVILLE    CLEAR     67  64  90 CALM      29.88R
NEW BERN       CLEAR     69  65  86 CALM      29.87R
ELIZABETH CITY CLEAR     68  64  87 NE5       29.88R

.........CENTRAL NC.........

CITY           SKY/WX    TMP DP  RH WIND       PRES   REMARKS
RALEIGH DURHAM PTCLDY    65  62  90 CALM      29.89R
ROCKY MOUNT    CLEAR     64  62  93 CALM      29.89R
ROANOKE RAPIDS NOT AVBL
FAYETTEVILLE   CLEAR     70  65  84 CALM      29.87R
HOFFMAN        CLEAR     70  63  78 E1        29.91R

.........WESTERN NC.........

CITY           SKY/WX    TMP DP  RH WIND       PRES   REMARKS
CHARLOTTE      PTCLDY    72  61  68 CALM      29.89S
GREENSBORO     PTCLDY    72  60  66 SE5       29.89R
HICKORY        NOT AVBL
BOONE          NOT AVBL
ASHEVILLE      NOT AVBL

.....................REST OF SOUTH CAROLINA.....................

.........EASTERN SC.........

CITY           SKY/WX    TMP DP  RH WIND       PRES   REMARKS
CHARLESTON     PTCLDY    74  66  76 N3        29.87R
BEAUFORT MCAS  CLEAR     73  68  84 CALM      29.87R
HILTON HEAD    NOT AVBL

.........CENTRAL SC.........

CITY           SKY/WX    TMP DP  RH WIND       PRES   REMARKS
COLUMBIA       PTCLDY    75  63  66 CALM      29.88R
ORANGEBURG     CLEAR     71  65  81 CALM      29.88R
SUMTER SHAW    CLEAR     74  65  73 CALM      29.87R

.........WESTERN SC.........

CITY           SKY/WX    TMP DP  RH WIND       PRES   REMARKS
GREENVILLE     NOT AVBL
ROCK HILL      CLEAR     66  63  90 CALM      29.90R
ANDERSON       CLEAR     71  65  81 CALM      29.90R
CLEMSON        NOT AVBL
GREENWOOD      CLEAR     71  65  81 CALM      29.91R


...................COASTAL AND OFFSHORE REPORTS..................

................LOCAL PIERS AND NC RESERVE................


STATION/POSITION TIME  SKY/WX   TEMP    WIND        PRES    VSBY
                                AIR SEA DIR/SP/G
                 (UTC)          (F)     (DEG/KT/KT) (MB)    (MI)
JOHNY MRCER PIER 0000            76 78   70/  5/  5 1010.5R
NC RESRV MASNBRO 2300            74      60/  3     1010.0S
OCEAN CREST PIER 0000            74 75   20/  4/  4 1010.0R
SPRINGMAID  PIER 0000            74 76  220/  3/  3 1011.2R


................COASTAL AND OFFSHORE BUOYS................


STATION/POSITION TIME  SKY/WX   TEMP    WIND        PRES    VSBY
                                AIR SEA DIR/SP/G
                 (UTC)          (F)     (DEG/KT/KT) (MB)    (MI)
DIMNDSHOAL 41025 0000            72     360/ 17/ 21 1010.1R
WVE H/P(F/S)=  4/ 6 WND WVE H/P(F/S)=  3/ 6 SWL H/P/D(F/S/D)=  2/ 60/ 9

CAPE LOOKOUT     2300            73      20/ 10/ 11 1010.4R
ONSLOW BAY 41036 0000            76 80   40/ 14/ 17 1010.1R
WVE H/P(F/S)=  3/ 5 WND WVE H/P(F/S)=  3/ 5 SWL H/P/D(F/S/D)=  2/ 80/ 7

5 WRITEBCH 41038 2300            72 76   70/  8/  8   N/A
MASONBORO  41110 0000               76                N/A
WVE H/P(F/S)=  2/14 WND WVE H/P(F/S)=  2/ 6

WILM HARBR 41108 0000               76                N/A
WVE H/P(F/S)=  2/ 6 WND WVE H/P(F/S)=  2/ 6

27WRITEBCH 41037 2300            73 80   50/ 10/ 12 1010.3R
FRYING PAN 41013 NOT AVBL
SUNST NRSH 41024 2300            76     190/  4/  4 1010.7R
CAPRS NRSH 41029 2300            76      80/  4/  4   N/A
EDISTO     41004 0000            77 81   30/ 12/ 14 1010.5R
WVE H/P(F/S)=  4/ 6 WND WVE H/P(F/S)=  3/ 5 SWL H/P/D(F/S/D)=  3/ 6



..........OFFSHORE BUOYS BEYOND 100 NM OFFSHORE...........
.....IN A TRIANGLE---HAT TO BERMUDA TO BAHAMAS TO HAT.....


STATION/POSITION TIME  SKY/WX   TEMP    WIND        PRES    VSBY
                                AIR SEA DIR/SP/G
                 (UTC)          (F)     (DEG/KT/KT) (MB)    (MI)
150E HAT   41001 NOT AVBL
W BERMUDA  41048 NOT AVBL
ATLANTIC S 41049 NOT AVBL
E BAHAMAS  41046 2247            83 84  220/ 16/ 17 1012.6F
WVE H/P(F/S)=  4/ 8 WND WVE H/P(F/S)=  3/ 5 SWL H/P/D(F/S/D)=  2/ 40/ 8

NE BAHAMAS 41047 NOT AVBL
120E CANVRL41010 0000            80 84  320/ 10/ 10 1009.9R
WVE H/P(F/S)=  3/ 5 WND WVE H/P(F/S)=  2/ 4 SWL H/P/D(F/S/D)=  3/290/ 5


END


USA.gov is the U.S. government's official web portal to all federal, state and local government web resources and services.